Location: Austin
(30.3000°N, 97.7500°W)
Time: 12:29:48
(UTC-05:00)

ADEOS Rocket - Pass Details

Date: 26 May 2023
Orbit: 858 x 1306 km, 98.7° (Epoch: 30 May)

Event Time Altitude Azimuth Distance (km) Brightness Sun altitude
Exits shadow 22:39:48 46° 144° (SE) 1,605 3.6 -24.5°
Maximum altitude 22:42:12 72° 75° (ENE) 1,260 3.4 -24.8°
Drops below altitude 10° 22:49:04 10° 353° (N) 2,996 6.2 -25.8°
Sets 22:51:32 0° 351° (N) 3,896 7.0 -26.2°
